Location: Boiro
(42.6475°N, 8.8834°W)
Time: 18:12:50
(UTC+01:00)

Explorer 7 - Pass Details

Date: 03 December 2021
Orbit: 483 x 674 km, 50.3° (Epoch: 26 January)

Event Time Altitude Azimuth Distance (km) Brightness Sun altitude
Rises 07:46:59 0° 239° (WSW) 2,829 - -11.0°
Exits shadow 07:47:40 - 239° (WSW) 2,558 9.8 -10.9°
Reaches altitude 10° 07:49:20 10° 240° (WSW) 1,896 9.2 -10.6°
Maximum altitude 07:53:40 85° 330° (NNW) 563 6.8 -9.9°
Drops below altitude 10° 07:57:44 10° 59° (ENE) 1,785 10.0 -9.2°
Sets 07:59:53 0° 60° (ENE) 2,648 10.9 -8.8°
